Weather History for Nenana, AK

Change the Weather History Date:

Wednesday, September 18, 2013

  Actual Average Record
Temperature  
Mean Temperature 45 °F -  
Max Temperature 60 °F 53 °F 72 °F (1969)
Min Temperature 30 °F 32 °F 30 °F (2013)
Degree Days  
Heating Degree Days 20    
Moisture  
Dew Point 30 °F    
Average Humidity 88    
Maximum Humidity 95    
Minimum Humidity 64    
Precipitation  
Precipitation 0.10 in - - ()
Sea Level Pressure  
Sea Level Pressure 29.72 in    
Wind  
Wind Speed 3 mph (WNW)    
Max Wind Speed 9 mph    
Max Gust Speed -    
Visibility 6 miles    
Events Snow    
Averages and records for this station are not official NWS values.
T = Trace of Precipitation, MM = Missing Value Source: NWS Daily Summary

Daily Weather History Graph

Daily Weather History Graph

Search for Another Location

Airport:

Trip Planner

Search our weather history database for the weather conditions in past years. The results will help you decide how hot, cold, wet, or windy it might be!

Date:

Astronomy

Sep. 18, 2013 Rise Set
Actual Time 7:28 AM AKDT 8:09 PM AKDT
Civil Twilight 6:39 AM AKDT 8:58 PM AKDT
Nautical Twilight 5:38 AM AKDT 9:59 PM AKDT
Astronomical Twilight 4:24 AM AKDT 11:11 PM AKDT
Moon 7:27 PM AKDT (9/18) 6:41 AM AKDT (9/18)
Length of Visible Light 14h 19m
Length of Day
12h 41m
Waxing Gibbous, 99% of the Moon is Illuminated
Sep 18
Waxing Gibbous
Sep 19
Full
Sep 26
Last Quarter
Oct 4
New
Oct 11
First Quarter

Hourly Weather History & Observations

Time (AKDT) Temp. Windchill Dew Point Humidity Pressure Visibility Wind Dir Wind Speed Gust Speed Precip Events Conditions
12:26 AM 30.2 °F 24.3 °F 28.4 °F 93% 29.67 in 2.5 mi NW 5.8 mph - 0.00 in Snow Light Snow
12:32 AM 30.2 °F 24.3 °F 28.4 °F 93% 29.67 in 3.0 mi WNW 5.8 mph - 0.01 in Snow Light Snow
12:53 AM 30.9 °F 26.2 °F 28.9 °F 92% 29.70 in 4.0 mi WNW 4.6 mph - 0.01 in   Overcast
1:29 AM 30.2 °F 24.3 °F 28.4 °F 93% 29.68 in 2.0 mi WNW 5.8 mph - 0.00 in Snow Light Snow
1:38 AM 30.2 °F 25.4 °F 28.4 °F 93% 29.68 in 1.8 mi WNW 4.6 mph - 0.00 in Snow Light Snow
1:45 AM 30.2 °F 24.3 °F 28.4 °F 93% 29.68 in 2.0 mi WNW 5.8 mph - 0.00 in Snow Light Snow
1:53 AM 30.9 °F 25.2 °F 28.0 °F 89% 29.70 in 2.0 mi WNW 5.8 mph - 0.00 in Snow Light Snow
2:20 AM 30.2 °F 24.3 °F 28.4 °F 93% 29.68 in 1.8 mi WNW 5.8 mph - 0.00 in Snow Light Snow
2:53 AM 30.0 °F - 28.0 °F 92% 29.71 in 1.5 mi Calm Calm - 0.01 in Snow Light Snow
3:04 AM 30.2 °F 26.7 °F 28.4 °F 93% 29.68 in 1.8 mi West 3.5 mph - 0.00 in Snow Light Snow
3:25 AM 30.2 °F 25.4 °F 28.4 °F 93% 29.68 in 1.5 mi WNW 4.6 mph - 0.01 in Snow Light Snow
3:53 AM 30.0 °F 25.2 °F 28.0 °F 92% 29.71 in 1.5 mi WNW 4.6 mph - 0.02 in Snow Light Snow
4:05 AM 30.2 °F - 28.4 °F 93% 29.69 in 1.5 mi Calm Calm - 0.00 in Snow Light Snow
4:36 AM 30.2 °F 26.7 °F 28.4 °F 93% 29.69 in 1.2 mi Variable 3.5 mph - 0.01 in Snow Light Snow
4:53 AM 30.0 °F 26.5 °F 28.0 °F 92% 29.72 in 1.5 mi West 3.5 mph - 0.02 in Snow Light Snow
5:01 AM 30.2 °F 25.4 °F 28.4 °F 93% 29.69 in 2.5 mi WNW 4.6 mph - 0.00 in Snow Light Snow
5:27 AM 30.2 °F 26.7 °F 28.4 °F 93% 29.69 in 1.8 mi Variable 3.5 mph - 0.01 in Snow Light Snow
5:53 AM 30.0 °F 25.2 °F 28.0 °F 92% 29.72 in 1.5 mi WNW 4.6 mph - 0.02 in Snow Light Snow
6:07 AM 30.2 °F 26.7 °F 28.4 °F 93% 29.69 in 2.0 mi NW 3.5 mph - 0.00 in Snow Light Snow
6:19 AM 30.2 °F 26.7 °F 28.4 °F 93% 29.69 in 4.0 mi NW 3.5 mph - 0.00 in Snow Light Snow
6:36 AM 30.2 °F - 28.4 °F 93% 29.69 in 4.0 mi Calm Calm - 0.00 in Snow Light Snow
6:53 AM 30.0 °F - 28.0 °F 92% 29.73 in 2.5 mi Calm Calm - 0.00 in Snow Light Snow
7:06 AM 30.2 °F - 28.4 °F 93% 29.70 in 3.0 mi Calm Calm - 0.01 in Snow Light Snow
7:34 AM 30.2 °F - 28.4 °F 93% 29.70 in 9.0 mi Calm Calm - 0.01 in   Overcast
7:53 AM 30.0 °F 26.5 °F 28.0 °F 92% 29.73 in 10.0 mi WNW 3.5 mph - 0.01 in   Overcast
8:53 AM 30.0 °F - 28.0 °F 92% 29.73 in 10.0 mi Calm Calm - N/A   Overcast
9:11 AM 30.2 °F 26.7 °F 28.4 °F 93% 29.71 in 10.0 mi SW 3.5 mph - N/A   Overcast
9:53 AM 30.0 °F - 28.0 °F 92% 29.73 in 10.0 mi Calm Calm - N/A   Overcast
10:09 AM 30.2 °F - 28.4 °F 93% 29.70 in 10.0 mi Calm Calm - N/A   Overcast
10:53 AM 30.9 °F - 28.9 °F 92% 29.73 in 10.0 mi Calm Calm - N/A   Overcast
11:53 AM 32.0 °F - 28.9 °F 88% 29.74 in 10.0 mi Calm Calm - N/A   Overcast
12:31 PM 32.0 °F - 28.4 °F 87% 29.71 in 10.0 mi Calm Calm - N/A   Overcast
12:53 PM 32.0 °F - 28.9 °F 88% 29.74 in 10.0 mi Calm Calm - N/A   Overcast
1:25 PM 33.8 °F 30.8 °F 28.4 °F 81% 29.72 in 10.0 mi WSW 3.5 mph - N/A   Overcast
1:53 PM 33.1 °F 30.0 °F 28.9 °F 85% 29.75 in 10.0 mi Variable 3.5 mph - N/A   Overcast
2:06 PM 33.8 °F - 28.4 °F 81% 29.72 in 10.0 mi Calm Calm - N/A   Overcast
2:42 PM 33.8 °F 29.6 °F 30.2 °F 87% 29.72 in 10.0 mi Variable 4.6 mph - N/A   Overcast
2:53 PM 34.0 °F - 28.9 °F 82% 29.75 in 10.0 mi Calm Calm - N/A   Overcast
3:04 PM 35.6 °F - 28.4 °F 75% 29.72 in 10.0 mi Calm Calm - N/A   Overcast
3:17 PM 33.8 °F - 28.4 °F 81% 29.72 in 10.0 mi Calm Calm - N/A   Overcast
3:53 PM 35.1 °F - 28.9 °F 78% 29.75 in 10.0 mi Calm Calm - N/A   Overcast
4:05 PM 35.6 °F - 28.4 °F 75% 29.72 in 10.0 mi Calm Calm - N/A   Overcast
4:53 PM 36.0 °F - 30.0 °F 79% 29.75 in 10.0 mi Calm Calm - N/A   Overcast
5:43 PM 35.6 °F 31.7 °F 30.2 °F 81% 29.73 in 1.8 mi Variable 4.6 mph - 0.00 in Snow Light Snow
5:46 PM 33.8 °F 30.8 °F 30.2 °F 87% 29.72 in 1.0 mi WNW 3.5 mph - 0.00 in Snow Light Snow
5:49 PM 33.8 °F 30.8 °F 30.2 °F 87% 29.72 in 0.8 mi WNW 3.5 mph - 0.00 in Snow Light Snow
5:53 PM 35.1 °F - 30.9 °F 85% 29.75 in 1.5 mi Calm Calm - 0.01 in Snow Light Snow
5:55 PM 35.6 °F - 30.2 °F 81% 29.72 in 2.5 mi Calm Calm - 0.00 in Snow Light Snow
6:02 PM 35.6 °F - 30.2 °F 81% 29.72 in 9.0 mi Calm Calm - 0.00 in   Overcast
6:53 PM 33.1 °F - 30.9 °F 92% 29.75 in 10.0 mi Calm Calm - 0.00 in   Partly Cloudy
7:53 PM 32.0 °F - 30.0 °F 92% 29.75 in 10.0 mi Calm Calm - N/A   Overcast
8:53 PM 32.0 °F - 30.0 °F 92% 29.74 in 10.0 mi Calm Calm - N/A   Overcast
9:53 PM 32.0 °F - 30.0 °F 92% 29.74 in 10.0 mi Calm Calm - N/A   Overcast
10:53 PM 32.0 °F - 28.9 °F 88% 29.74 in 10.0 mi Calm Calm - N/A   Overcast
11:53 PM 32.0 °F 26.4 °F 28.9 °F 88% 29.73 in 10.0 mi ENE 5.8 mph - N/A   Overcast